Regional Weather Roundup
Issued by NWS

Home | Current Version | Previous Version | Graphics & Text | Print | Product List | Glossary On
Versions: 1 2 3 4 5 6 7 8 9 10 11 12 13 14 15 16 17 18 19 20 21 22 23 24 25 26 27 28 29 30 31 32 33 34 35 36 37 38 39 40 41 42 43 44 45 46 47 48 49 50
000
ASUS43 KMPX 270001
RWRMN
WEATHER ROUNDUP FOR MINNESOTA
NATIONAL WEATHER SERVICE TWIN CITIES/CHANHASSEN MN
600 PM CST SUN FEB 26 2017


NOTE: "FAIR" INDICATES FEW OR NO CLOUDS BELOW 12,000 FEET WITH NO
SIGNIFICANT WEATHER AND/OR OBSTRUCTIONS TO VISIBILITY. N/A MEANS
CURRENT SKY AND/OR WEATHER CONDITIONS ARE NOT AVAILABLE.

MNZ060>063-068>070-270100-
   Twin Cities Metro

CITY           SKY/WX    TMP DP  RH WIND       PRES   REMARKS
TWIN CITIES    PTCLDY    32  13  45 W9        29.89R WCI  24
6HR MIN TEMP:  32; 6HR MAX TEMP:  40;

ST PAUL        CLEAR     32  12  43 W9        29.90R WCI  24
CRYSTAL        CLEAR     30  10  43 W10       29.88R WCI  21
BLAINE         CLEAR     32  10  40 W8        29.88R WCI  25
LAKEVILLE      CLEAR     30  19  64 W10       29.89R WCI  21
EDEN PRAIRIE   CLEAR     32  13  45 W14       29.88R WCI  22
6HR MIN TEMP:  32; 6HR MAX TEMP:  40;

SOUTH ST PAUL  CLEAR     33  12  42 NW8       29.89R WCI  26
LAKE ELMO      FAIR      32  14  47 W10       29.89R WCI  24
$$
MNZ001>005-007-008-013>017-022>024-027-028-270100-
   Northwest Minnesota

CITY           SKY/WX    TMP DP  RH WIND       PRES   REMARKS
BEMIDJI        CLEAR     17   6  62 W9        29.85R WCI   5
HALLOCK        MOCLDY    18  10  73 SW9       29.85R WCI   6
ROSEAU         CLEAR     16   7  67 SW7       29.84R WCI   6
WARROAD        CLEAR     14   3  62 SW7       29.83R WCI   4
THIEF RVR FALL CLEAR     13   6  74 SW10      29.87R WCI   0
CROOKSTON      CLEAR     18  10  73 W7        29.89S WCI   8
FOSSTON        CLEAR     14   5  67 SW6       29.87S WCI   5
DETROIT LAKES  CLEAR     19  10  68 W5        29.88S WCI  13
MOORHEAD       CLOUDY    18   9  68 SE3       29.91S
PARK RAPIDS    CLEAR     18   4  54 W7        29.84R WCI   9
MAHNOMEN       FAIR      17   9  72 W8        29.87S WCI   6
$$
MNZ006-009>011-018-025>026-270100-
   North Central Minnesota

CITY           SKY/WX    TMP DP  RH WIND       PRES   REMARKS
BAUDETTE       CLEAR     17  -1  45 W9        29.80R WCI   6
FLAG ISLAND    CLEAR     18   1  49 W10       29.79R WCI   6
INTL FALLS     CLEAR     16  -1  47 NW5       29.79S WCI   9
6HR MIN TEMP:  14; 6HR MAX TEMP:  19;

WASKISH        CLEAR     14   7  73 SW12      29.84R WCI   0
BIG FORK       CLEAR     19  -2  38 CALM      29.83R
LONGVILLE      CLEAR     19   3  49 CALM      29.85R
GRAND RAPIDS   CLEAR     17  -1  45 CALM      29.86R
CRANE LAKE     CLEAR     16  -2  45 CALM      29.83S
ORR            CLEAR     18  -4  38 CALM      29.77S
COOK           CLEAR     18  -2  41 W3        29.81R
WALKER         FAIR      20   1  42 NW6       29.84R WCI  12
$$
MNZ012-019>021-037-270100-
   Northeast Minnesota

CITY           SKY/WX    TMP DP  RH WIND       PRES   REMARKS
DULUTH         CLEAR     19  -1  41 W6        29.83R WCI  11
6HR MIN TEMP:  19; 6HR MAX TEMP:  22; 6HR PCP: TRACE;

ELY            CLEAR     16  -2  45 W5        29.80R WCI   9
HIBBING        CLEAR     18  -3  39 W5        29.82R WCI  11
EVELETH        CLEAR     20  -8  29 W3        29.82S
DULUTH HARBOR  CLEAR     19   3  49 CALM      29.90R
TWO HARBORS    CLEAR     21   3  45 W3        29.83R
SILVER BAY     CLEAR     19   0  42 CALM      29.82R
GRAND MARAIS     N/A     20   2  45 W6        29.85R WCI  12
G MARAIS ARPRT CLEAR     10  -2  56 W9        29.76R WCI  -2
$$
MNZ029>031-032-039>041-046>048-054>057-064-270100-
   West Central Minnesota

CITY           SKY/WX    TMP DP  RH WIND       PRES   REMARKS
FERGUS FALLS   CLOUDY    16   9  73 CALM      29.95R
WHEATON        CLOUDY    19  12  73 N6        29.92S WCI  11
MORRIS         CLOUDY    21  14  73 N8        29.89R WCI  12
ALEXANDRIA     CLOUDY    20  10  65 W7        29.88R WCI  11
ELBOW LAKE     CLOUDY    15   8  75 CALM      29.91R
WADENA         PTCLDY    16   7  67 W5        29.87S WCI   9
GLENWOOD       CLOUDY    21  12  68 W5        29.89R WCI  15
APPLETON       CLEAR     27  14  59 N7        29.89S WCI  19
BENSON         CLEAR     25  10  54 NE5       29.91R WCI  19
ORTONVILLE     CLEAR     23  14  68 NE3       29.88S
MADISON        CLEAR     30  19  64 NE8       29.88S WCI  23
WILLMAR        FAIR      27  18  69 N8        29.90R WCI  18
$$
MNZ033>034-036-042>043-049>051-058-059-270100-
   Central Minnesota

CITY           SKY/WX    TMP DP  RH WIND       PRES   REMARKS
ST CLOUD       PTCLDY    28   9  44 W8        29.88R WCI  20
6HR MIN TEMP:  28; 6HR MAX TEMP:  32;

SAUK CENTRE    CLOUDY    24  10  56 W6        29.89R WCI  17
PAYNESVILLE    PTCLDY    26  12  55 W7        29.89R WCI  19
AITKIN         CLEAR     21  -6  30 CALM      29.86R
PINE RIVER     CLEAR     21   5  49 CALM      29.89R
BRAINERD       CLEAR     22   2  42 W3        29.87R
STAPLES        CLEAR     10   3  72 W6        29.88R WCI   1
LONG PRAIRIE   CLOUDY    23   9  54 SW6       29.88R WCI  16
LITTLE FALLS   CLEAR     27   3  36 W6        29.89R WCI  20
LITCHFIELD     CLEAR     28  16  59 NW7       29.89R WCI  21
BUFFALO        CLEAR     30  12  47 W8        29.90R WCI  22
MAPLE LAKE     CLEAR     29  13  51 W5        29.89R WCI  24
HUTCHINSON     CLEAR     30  19  64 NW7       29.90R WCI  23
$$
MNZ037-044-045-052-053-270100-
   East Central Minnesota

CITY           SKY/WX    TMP DP  RH WIND       PRES   REMARKS
PRINCETON      CLEAR     28   9  43 W5        29.88R WCI  23
MORA           CLEAR     25   1  36 CALM      29.90R
CAMBRIDGE      CLEAR     28  14  54 W3        29.87R
RUSH CITY      CLEAR     27   5  39 N5        29.88R WCI  21
MOOSE LAKE     CLEAR     23   1  39 CALM      29.86R
HINCKLEY       FAIR      27   9  46 W6        29.88R WCI  20
CLOQUET        CLEAR     19  -2  38 W3        29.85R
MCGREGOR       PTCLDY    23   1  39 W3        29.87R
$$
MNZ071>073-080-081-089-090-097-098-270100-
   Southwest Minnesota

CITY           SKY/WX    TMP DP  RH WIND       PRES   REMARKS
MONTEVIDEO     CLEAR     27  19  74 NE7       29.91R WCI  19
GRANITE FALLS  CLEAR     31  20  65 N7        29.90R WCI  24
CANBY          MOCLDY    31  23  70 CALM      29.88R
MARSHALL       PTCLDY    30  22  72 E3        29.88R
REDWOOD FALLS  CLEAR     31  16  54 N3        29.89R
OLIVIA         CLEAR     30  19  64 N3        29.89R
PIPESTONE      CLEAR     34  25  69 SW8       29.85S WCI  27
WINDOM         PTCLDY    34  27  75 SW9       29.87S WCI  26
WORTHINGTON    CLEAR     33  26  75 SW10      29.88S WCI  25
JACKSON        CLEAR     32  27  80 SW9       29.89R WCI  24
TRACY          CLOUDY    33  26  76 E3        29.87R
SLAYTON        PTCLDY    33  28  81 SW13      29.87R WCI  23
$$
MNZ065>067-074>077-082>085-091>093-270100-
   South Central Minnesota

CITY           SKY/WX    TMP DP  RH WIND       PRES   REMARKS
MANKATO          N/A     32  23  69 N7        29.91R WCI  26
NEW ULM        CLEAR     30  19  64 N3        29.89R
ST JAMES       MOCLDY    34  28  80 CALM      29.91R
FAIRMONT       CLEAR     32  27  81 SW10      29.91R WCI  24
GLENCOE        CLEAR     31  22  69 W7        29.89R WCI  24
FARIBAULT      PTCLDY    30  19  64 W8        29.90R WCI  23
OWATONNA       MOCLDY    28  25  86 SW6       29.91R WCI  22
WASECA         CLOUDY    32  28  86 SW9       29.91R WCI  24
ALBERT LEA     CLEAR     28  25  86 SW6       29.91R WCI  22
$$
MNZ078>079-086>088-094>096-270100-
   Southeast Minnesota

CITY           SKY/WX    TMP DP  RH WIND       PRES   REMARKS
ROCHESTER      CLEAR     25  21  85 SW13      29.89R WCI  14
6HR MIN TEMP:  25; 6HR MAX TEMP:  30;

RED WING       CLEAR     34  16  47 W8        29.89R WCI  27
STANTON        CLEAR     32  19  58 W6        29.89R WCI  26
WINONA         CLEAR     34  27  75 W9        29.92R WCI  26
AUSTIN         CLEAR     27  21  80 SW6       29.91R WCI  20
PRESTON        CLEAR     28  22  79 SW8       29.91R WCI  19
$$
ABBREVIATIONS USED IN REMARKS
   TC - TEMPERATURES IN CELSIUS
  WCI - WIND CHILL INDEX
   HX - HEAT INDEX
  VSB - VISIBILITY
$$




USA.gov is the U.S. government's official web portal to all federal, state and local government web resources and services.